TIME,DELAY(SENSOR),PRES,T(CTD),SAL,OXYGEN,RAWTEMP,T(OPTODE),TCPHASE,TURBIDITY,TURBIDITY_GAIN,FLUOR,BETA,CDOM,ED411.5,ED443.8,ED489.6,PAR,COMP,TILT,TILTY(TILT),CHECK
1341465065,6466,237.2400054931640600,5.2397999763488770,34.9936981201171900,357.7026977539062500,644.8167114257812000,5.2184119224548340,32.4230308532714840,16,3,50,111,62,2147633339,2147390650,2147283222,2148318134,2937,0,-4,13555
1341465126,6467,233.4299926757812500,5.2593998908996580,34.9952011108398440,357.6189880371094000,644.2352294921875000,5.2372760772705080,32.4150886535644500,16,3,50,134,62,2147633321,2147393014,2147282627,2148319830,2526,0,-4,30170
1341465187,6469,229.6000061035156200,5.2651000022888180,34.9962997436523440,357.8674011230469000,643.9948730468750000,5.2450752258300780,32.4027290344238300,16,3,48,119,62,2147635469,2147393119,2147284406,2148318811,2186,0,-4,43700
1341465248,6467,225.7899932861328000,5.2711000442504880,34.9962997436523440,357.8121032714844000,643.8265991210938000,5.2505321502685550,32.4016990661621100,16,3,48,127,62,2147632218,2147392803,2147280397,2148319532,1873,0,-4,60671
1341465309,6467,222.0399932861328000,5.2718000411987305,34.9971008300781250,357.9974975585937500,643.7180786132812000,5.2540531158447270,32.3939094543457000,16,3,48,122,62,2147632694,2147391090,2147282207,2148319574,1597,0,-4,46892
1341465370,6470,218.2899932861328000,5.2820000648498535,34.9972991943359400,358.1241149902344000,643.4810791015625000,5.2617402076721190,32.3855514526367200,16,3,50,120,62,2147636192,2147394477,2147278020,2148322120,1261,0,-4,45609
1341465431,6469,214.5599975585937500,5.2912001609802250,34.9982986450195300,358.1581115722656000,643.1851806640625000,5.2713341712951660,32.3791007995605500,31,3,50,116,62,2147630888,2147391537,2147280827,2148322569,808,0,-4,39158
1341465492,6469,210.8300018310547000,5.2947998046875000,34.9984016418457000,358.1579895019531000,643.0621948242188000,5.2753238677978520,32.3770599365234400,16,3,48,119,62,2147634728,2147392603,2147281704,2148318811,135,0,-4,47454
1341465553,6467,207.1199951171875000,5.2992000579833980,34.9986991882324200,358.0783081054687500,642.9315795898438000,5.2795581817626950,32.3770790100097660,16,3,50,122,62,2147636470,2147392804,2147282874,2148320369,3227,0,-4,51101
1341465614,6467,203.4400024414062500,5.3000998497009280,34.9986991882324200,358.2618103027344000,642.8953247070312000,5.2807350158691410,32.3704795837402340,16,3,48,129,62,2147631473,2147394700,2147282207,2148323007,2744,0,-4,48296
1341465678,6466,199.6300048828125000,5.3076000213623050,34.9991989135742200,358.1317138671875000,642.6787719726562000,5.2877559661865230,32.3710289001464840,16,3,49,123,62,2147633965,2147391977,2147284388,2148319208,2391,0,-4,65473
1341465739,6469,195.9799957275390600,5.3105001449584960,34.9992980957031250,358.2388916015625000,642.5427246093750000,5.2921681404113770,32.3649101257324200,16,3,49,119,62,2147634175,2147394454,2147281430,2148321859,2143,0,-4,54505
1341465802,6467,192.1799926757812500,5.3190999031066895,34.9998016357421900,358.1361999511719000,642.3170166015625000,5.2994880676269530,32.3642311096191400,16,3,50,129,62,2147635405,2147391907,2147283208,2148321974,1804,0,-4,17226
1341465863,6469,188.5700073242187500,5.3214001655578610,34.9996986389160160,358.2045898437500000,642.2553710937500000,5.3014831542968750,32.3611984252929700,15,3,48,124,62,2147632319,2147391035,2147284127,2148322308,1558,0,-4,32434
1341465926,6469,184.9100036621093800,5.3260002136230470,34.9998016357421900,358.0877990722656000,642.1196289062500000,5.3058848381042480,32.3624610900878900,10,3,50,125,62,2147635684,2147389430,2147281540,2148318129,1201,0,-4,33664
1341465987,6467,181.4199981689453000,5.3295001983642580,35.0000000000000000,358.1560058593750000,641.9965209960938000,5.3098750114440920,32.3581581115722660,12,3,49,122,62,2147634358,2147392041,2147282577,2148319437,696,0,-4,46570
1341466050,6468,177.8399963378906200,5.3347997665405270,35.0005989074707000,358.2257080078125000,641.8286132812500000,5.3153209686279300,32.3527603149414060,12,3,50,122,63,2147632946,2147391561,2147282417,2148321969,47,0,-4,21169
1341466111,6469,174.4299926757812500,5.3390998840332030,35.0008010864257800,358.2543029785156000,641.6970825195312000,5.3195781707763670,32.3493804931640600,16,3,48,123,62,2147633960,2147394180,2147283898,2148321119,3015,0,-4,64090
1341466174,6468,170.9400024414062500,5.3422999382019040,35.0007019042968750,358.1445922851562500,641.5955810546875000,5.3228678703308105,32.3511695861816400,16,3,49,130,62,2147637549,2147394687,2147282665,2148318441,2689,0,-4,1585
1341466235,6468,167.5700073242187500,5.3447999954223630,35.0004997253418000,358.2398986816406000,641.5371704101562000,5.3247618675231930,32.3474197387695300,16,3,50,123,62,2147636954,2147389955,2147285051,2148321389,2343,0,-4,15522
1341466303,6468,163.8899993896484400,5.3488001823425290,35.0013999938964840,358.2720947265625000,641.3939819335938000,5.3294048309326170,32.3435096740722660,16,3,50,142,62,2147635153,2147393540,2147282994,2148319944,2030,0,-4,33872
1341466364,6468,160.5800018310547000,5.3555002212524410,35.0012016296386700,358.2481079101562500,641.2036132812500000,5.3355751037597660,32.3410606384277340,16,3,48,129,62,2147636242,2147391542,2147284928,2148319250,1809,0,-4,53051
1341466427,6467,157.1999969482422000,5.3615999221801760,35.0018997192382800,358.2695922851562500,640.9879150390625000,5.3425669670104980,32.3366012573242200,16,3,50,122,62,2147635433,2147389759,2147283528,2148323949,1576,0,-4,19080
1341466488,6469,154.0099945068359400,5.3646001815795900,35.0021018981933600,358.1946105957031000,640.8765258789062000,5.3461761474609375,32.3366889953613300,16,3,50,127,62,2147633823,2147393119,2147283085,2148320507,1260,0,-4,20084
1341466551,6468,150.7400054931640600,5.3723001480102540,35.0026016235351560,358.2531127929687500,640.6708984375000000,5.3528389930725100,32.3314094543457000,20,3,49,124,62,2147633256,2147394578,2147285402,2148321549,911,0,-4,46428
1341466612,6468,147.5800018310547000,5.3831000328063965,35.0027008056640600,358.1823120117187500,640.3496093750000000,5.3632488250732420,32.3279914855957000,16,3,49,124,62,2147635962,2147393750,2147285000,2148320653,525,0,-4,59277
1341466675,6466,144.3500061035156200,5.3944001197814940,35.0028991699218750,358.0754089355469000,639.9865112304688000,5.3750109672546390,32.3248710632324200,16,3,50,122,62,2147636063,2147393028,2147284470,2148320378,3517,0,-4,5678
1341466736,6468,141.2400054931640600,5.3983998298645020,35.0032997131347660,357.8450927734375000,639.8856201171875000,5.3782830238342285,32.3304405212402340,11,3,50,126,62,2147636781,2147391748,2147285284,2148321462,2930,0,-4,59320
1341466799,6468,138.0500030517578000,5.4010000228881840,35.0029983520507800,357.8187866210937500,639.8010864257812000,5.3810181617736820,32.3300285339355500,16,3,50,128,62,2147637609,2147389005,2147288210,2148319322,2676,0,-4,549
1341466860,6468,134.9499969482422000,5.4022002220153810,35.0032005310058600,357.6387023925781000,639.7427978515625000,5.3829059600830080,32.3347587585449200,16,3,50,130,62,2147639222,2147396931,2147284708,2148321952,2463,0,-4,17383
1341466923,6469,131.8500061035156200,5.4140000343322750,35.0033988952636700,357.5463867187500000,639.4185791015625000,5.3934059143066410,32.3318901062011700,35,3,50,132,62,2147635062,2147390390,2147284402,2148318349,2187,0,-4,59713
1341466984,6468,128.8699951171875000,5.4272999763488770,35.0036010742187500,357.1895141601562500,638.9885864257812000,5.4073309898376465,32.3358993530273440,16,3,50,130,62,2147636470,2147394243,2147286386,2148321727,1945,0,-4,1425
1341467047,6468,125.8899993896484400,5.4384999275207520,35.0045013427734400,356.8006896972656000,638.6539916992188000,5.4181690216064450,32.3424797058105500,14,3,50,139,62,2147634769,2147393270,2147288434,2148319392,1609,0,-4,16117
1341467108,6467,123.0299987792968800,5.4498000144958500,35.0041999816894500,356.7810058593750000,638.3256225585938000,5.4288010597229000,32.3373298645019500,22,3,50,140,62,2147637293,2147393539,2147290723,2148320585,1206,0,-4,57817
1341467171,6467,120.1900024414062500,5.4686999320983890,35.0051002502441400,356.4419860839844000,637.7418212890625000,5.4477019309997560,32.3382110595703100,16,3,50,137,62,2147637444,2147394148,2147292484,2148320899,938,0,-4,59087
1341467232,6468,117.5299987792968800,5.4767999649047850,35.0054016113281250,356.1087036132812500,637.4896240234375000,5.4558658599853520,32.3442115783691400,16,3,50,147,62,2147637179,2147394651,2147289535,2148319414,451,0,-4,5726
1341467295,6466,114.8700027465820300,5.4913001060485840,35.0063018798828100,356.0372009277344000,637.0209960937500000,5.4710350036621090,32.3383483886718750,32,3,51,126,62,2147637969,2147395743,2147292571,2148321325,3573,0,-4,21328
1341467356,6469,112.3099975585937500,5.5117998123168945,35.0059013366699200,355.8338928222656000,636.4525756835938000,5.4894261360168460,32.3351402282714840,16,3,50,132,62,2147634994,2147398234,2147295331,2148321027,3060,0,-4,26989
1341467419,6466,109.7200012207031200,5.5409002304077150,35.0063018798828100,355.8290100097656000,635.5615234375000000,5.5182590484619140,32.3194389343261700,16,3,50,132,62,2147633082,2147395231,2147294577,2148318545,2730,0,-4,16037
1341467480,6467,107.2600021362304700,5.5616002082824710,35.0063018798828100,355.8474121093750000,634.9218750000000000,5.5389461517333980,32.3075294494628900,15,3,52,133,62,2147638134,2147394377,2147299857,2148321137,2518,0,-4,811
1341467543,6466,104.7099990844726600,5.5812997817993160,35.0069007873535160,356.0556945800781000,634.3182983398438000,5.5584659576416020,32.2903404235839840,16,3,52,139,62,2147635953,2147394720,2147295267,2148321142,2175,0,-4,47517
1341467604,6467,102.2099990844726600,5.5943999290466310,35.0071983337402340,356.2319030761719000,633.9030151367188000,5.5718941688537600,32.2769508361816400,16,3,52,134,60,2147636927,2147397814,2147297001,2148319729,1905,0,-4,62933
1341467667,6467,99.5699996948242200,5.6125998497009280,35.0069999694824200,356.5632934570312500,633.2553100585938000,5.5928330421447750,32.2550201416015600,16,3,51,134,62,2147635204,2147394578,2147302253,2148320489,1696,0,-4,9024
1341467728,6467,97.0299987792968800,5.6637997627258300,35.0056991577148440,356.6690063476562500,631.8704223632812000,5.6375889778137210,32.2273597717285160,14,3,52,138,62,2147636186,2147392420,2147303067,2148319899,1485,0,-4,39287
1341467791,6467,94.5400009155273400,5.6750001907348630,35.0061988830566400,357.3499145507812500,631.3914184570312000,5.6530628204345700,32.1968688964843750,86,3,53,138,62,2147636223,2147392516,2147304265,2148321709,1064,0,-4,29673
1341467852,6468,92.2399978637695300,5.6888999938964840,35.0065002441406250,357.5802001953125000,630.8975830078125000,5.6690158843994140,32.1808090209960940,12,3,52,150,62,2147635665,2147395249,2147306070,2148322765,1020,0,-4,8646
1341467943,6468,88.2600021362304700,5.7646999359130860,35.0035018920898440,358.5974121093750000,628.7182006835938000,5.7393879890441895,32.1099700927734400,15,3,55,161,62,2147636799,2147399661,2147312557,2148324026,240,0,-4,11774
1341468004,6468,84.8899993896484400,5.8014001846313480,35.0040016174316400,360.8255920410156000,627.0927734375000000,5.7918357849121090,32.0102806091308600,16,3,56,167,63,2147638481,2147398221,2147315762,2148328305,2999,0,-4,62734
1341468067,6467,81.5299987792968800,5.8418002128601070,35.0033988952636700,362.9172058105469000,626.2426147460938000,5.8192620277404785,31.9291305541992200,16,3,57,161,62,2147639258,2147398568,2147317151,2148326784,2576,0,-4,19602
1341468128,6468,78.4700012207031200,5.9239997863769530,35.0023002624511700,364.2218933105469000,623.6909179687500000,5.9015288352966310,31.8439903259277340,15,3,59,199,62,2147638166,2147401928,2147321658,2148328077,2189,0,-4,59993
1341468192,6465,75.3899993896484400,5.9774999618530270,35.0022010803222660,366.2755126953125000,621.8964843750000000,5.9593372344970700,31.7485694885253900,37,3,62,173,62,2147635848,2147399747,2147325485,2148327245,1899,0,-4,10114
1341468253,6468,72.5500030517578100,6.0099000930786130,35.0028991699218750,367.1687011718750000,620.8585815429688000,5.9927620887756350,31.7028007507324220,15,3,66,182,63,2147639148,2147403597,2147331716,2148330271,1605,0,-4,27247
1341468316,6468,69.4899978637695300,6.0293002128601070,35.0026016235351560,367.7879028320312500,620.2891845703125000,6.0110931396484375,31.6736392974853500,18,3,68,184,62,2147637933,2147402627,2147340996,2148327866,1291,0,-4,61342
1341468377,6466,66.2099990844726600,6.0732002258300780,35.0023002624511700,368.1081848144531000,619.0501708984375000,6.0509738922119140,31.6427001953125000,19,3,76,202,62,2147640685,2147408927,2147352767,2148331666,887,0,-4,65081
1341468440,6465,62.2900009155273440,6.1098999977111820,35.0027999877929700,368.5380859375000000,617.8441772460938000,6.0897731781005860,31.6086807250976560,57,3,93,211,63,2147641398,2147414816,2147372621,2148335327,3548,0,-4,45005
1341468501,6470,57.9199981689453100,6.1426000595092770,35.0029983520507800,368.7520141601562500,616.8508300781250000,6.1217250823974610,31.5847892761230470,21,3,108,220,62,2147646770,2147426482,2147409110,2148346249,3090,0,-4,49799
1341468588,6468,51.7999992370605500,6.1979999542236330,35.0023002624511700,368.9195861816406000,615.2031250000000000,6.1746978759765625,31.5516300201416000,23,3,138,248,63,2147656072,2147446770,2147474938,2148363299,2470,0,-4,63739
1341468649,6470,48.5999984741210940,6.2560000419616700,35.0005989074707000,369.0215148925781000,613.5413208007812000,6.2280941009521480,31.5202598571777340,27,3,172,241,63,2147662797,2147466020,2147523126,2148375501,2372,0,-4,47826
1341468712,6469,46.1599998474121100,6.2990999221801760,35.0000000000000000,369.3572082519531000,612.2794189453125000,6.2686247825622560,31.4883308410644530,39,3,189,248,63,2147668383,2147482715,2147564611,2148388955,2104,0,-4,4269
1341468773,6468,44.7099990844726560,6.3899002075195310,34.9976997375488300,369.3041992187500000,609.3276977539062000,6.3633689880371090,31.4400291442871100,36,3,230,301,64,2147675327,2147493910,2147585489,2148394445,1976,0,-4,44312
1341468872,6468,43.4500007629394500,6.5297999382019040,34.9962997436523440,370.9843139648437500,604.9581909179688000,6.5034642219543460,31.3148002624511720,45,3,285,382,64,2147685810,2147513380,2147619994,2148404461,1358,0,-4,52973
1341469009,6470,41.4700012207031250,6.9338998794555660,34.9887008666992200,375.8021850585937500,592.9133300781250000,6.8886990547180180,30.9682197570800780,86,3,510,641,64,2147744968,2147595158,2147785581,2148452100,2860,0,-4,42519
1341469111,6471,36.8600006103515600,7.5889000892639160,34.9701995849609400,380.8204040527344000,571.1791992187500000,7.5804162025451660,30.4656505584716800,98,3,569,720,64,2147931272,2147856246,2148274143,2148594363,1935,0,-4,53008
1341469172,6471,30.9899997711181640,7.9758000373840330,34.9710998535156250,391.2142028808594000,559.7692260742188000,7.9418721199035645,29.9842891693115230,93,3,592,765,64,2148417027,2148495491,2149273449,2148918477,1076,0,-4,4443
1341469258,6471,20.7099990844726560,8.7795000076293950,34.9715003967285160,400.8204956054687500,535.0020141601562000,8.7227058410644530,29.3339691162109380,99,3,411,753,60,2150321768,2150749087,2152210715,2150032329,1427,0,-4,4771
1341469319,6470,15.6400003433227540,8.9539003372192380,34.9772987365722660,405.0679016113281000,529.1159057617188000,8.9075508117675780,29.1292304992675780,96,3,442,693,60,2152270454,2152861462,2154621046,2151069453,1624,0,-5,53211
1341469398,6469,12.4799995422363280,10.1321001052856450,34.9747009277343750,399.0056152343750000,496.8949890136719000,9.9147949218750000,28.8164100646972660,82,3,494,661,60,2153820950,2154498386,2156355633,2151851145,1965,2,-4,64694
1341469794,6471,10.5399999618530270,11.5664997100830080,34.9959983825683600,359.7601013183594000,443.9057922363281000,11.5560703277587890,29.1845607757568360,77,3,258,641,58,2156092767,2156887940,2158853279,2153132607,2133,-1,-3,60314
1341469855,6468,7.0399999618530270,11.5689001083374020,34.9994010925293000,357.0172119140625000,443.6789855957031000,11.5630598068237300,29.2650203704834000,83,3,255,625,57,2159362893,2160238034,2162212356,2155321828,2103,6,0,40998
1341469909,6470,3.9400000572204590,11.5689001083374020,35.0001983642578100,356.1922912597656000,443.6117858886719000,11.5651302337646480,29.2892494201660160,87,3,252,592,59,2162660433,2163510523,2165352388,2158412785,3095,2,4,6440
1341469957,6469,2.4500000476837160,0.0000000000000000,0.0000000000000000,355.7701110839844000,443.6207885742187500,11.5648498535156250,29.3023395538330080,81,3,250,528,56,2164071962,2164931368,2166712054,2160193540,1222,-4,-21,22025
1341469991,6467,0.8000000119209290,0.0000000000000000,0.0000000000000000,355.7157897949219000,443.6177978515625000,11.5649404525756840,29.3040504455566400,80,3,249,604,58,2166282944,2166791537,2168462848,2164195999,2555,5,3,5352
